Weather History for Mammoth, CA

Change the Weather History Date:

Sunday, January 19, 2014

  Actual Average Record
Temperature  
Mean Temperature 30 °F -  
Max Temperature 57 °F 35 °F 62 °F (2004)
Min Temperature 3 °F 21 °F -5 °F (2013)
Degree Days  
Heating Degree Days 35    
Moisture  
Dew Point 2 °F    
Average Humidity 37    
Maximum Humidity 72    
Minimum Humidity 10    
Precipitation  
Precipitation 0.00 in - - ()
Sea Level Pressure  
Sea Level Pressure 30.30 in    
Wind  
Wind Speed 2 mph (East)    
Max Wind Speed 9 mph    
Max Gust Speed -    
Visibility 10 miles    
Events      
Averages and records for this station are not official NWS values.
T = Trace of Precipitation, MM = Missing Value Source: NWS Daily Summary

Daily Weather History Graph

Daily Weather History Graph

Search for Another Location

Airport:

Trip Planner

Search our weather history database for the weather conditions in past years. The results will help you decide how hot, cold, wet, or windy it might be!

Date:

Astronomy

Jan. 19, 2014 Rise Set
Actual Time 7:07 AM PST 5:05 PM PST
Civil Twilight 6:39 AM PST 5:33 PM PST
Nautical Twilight 6:07 AM PST 6:05 PM PST
Astronomical Twilight 5:35 AM PST 6:36 PM PST
Moon 8:42 PM PST (1/19) 8:44 AM PST (1/19)
Length of Visible Light 10h 54m
Length of Day
9h 57m
Waning Gibbous, 89% of the Moon is Illuminated
Jan 19
Waning Gibbous
Jan 23
Last Quarter
Jan 30
New
Feb 6
First Quarter
Feb 14
Full

Hourly Weather History & Observations

Time (PST) Temp. Windchill Dew Point Humidity Pressure Visibility Wind Dir Wind Speed Gust Speed Precip Events Conditions
12:15 AM 21.2 °F - 5.0 °F 50% 30.32 in 10.0 mi Calm Calm - N/A   Clear
12:35 AM 21.2 °F - 1.4 °F 42% 30.32 in 10.0 mi Calm Calm - N/A   Clear
12:55 AM 15.8 °F - 1.4 °F 53% 30.32 in 10.0 mi Calm Calm - N/A   Clear
1:15 AM 15.8 °F - -0.4 °F 49% 30.32 in 10.0 mi Calm Calm - N/A   Clear
1:35 AM 14.0 °F 8.2 °F -0.4 °F 53% 30.32 in 10.0 mi North 3.5 mph - N/A   Clear
1:55 AM 17.6 °F - 3.2 °F 53% 30.32 in 10.0 mi Calm Calm - N/A   Clear
2:15 AM 17.6 °F - 3.2 °F 53% 30.32 in 10.0 mi Calm Calm - N/A   Clear
2:35 AM 19.4 °F - 5.0 °F 54% 30.32 in 10.0 mi Calm Calm - N/A   Clear
2:55 AM 17.6 °F - 3.2 °F 53% 30.32 in 10.0 mi Calm Calm - N/A   Clear
3:15 AM 12.2 °F - -0.4 °F 57% 30.31 in 10.0 mi Calm Calm - N/A   Clear
3:35 AM 8.6 °F 0.1 °F -4.0 °F 57% 30.31 in 10.0 mi North 4.6 mph - N/A   Clear
3:55 AM 6.8 °F - -2.2 °F 67% 30.31 in 10.0 mi Calm Calm - N/A   Clear
4:15 AM 10.4 °F - 1.4 °F 67% 30.31 in 10.0 mi Calm Calm - N/A   Clear
4:35 AM 12.2 °F - -0.4 °F 57% 30.31 in 10.0 mi Calm Calm - N/A   Clear
4:55 AM 12.2 °F - -0.4 °F 57% 30.31 in 10.0 mi Calm Calm - N/A   Clear
5:15 AM 14.0 °F - -0.4 °F 53% 30.31 in 10.0 mi Calm Calm - N/A   Clear
5:35 AM 15.8 °F - 1.4 °F 53% 30.31 in 10.0 mi Calm Calm - N/A   Clear
5:55 AM 12.2 °F - -0.4 °F 57% 30.31 in 10.0 mi Calm Calm - N/A   Clear
6:15 AM 12.2 °F - -0.4 °F 57% 30.31 in 10.0 mi Calm Calm - N/A   Clear
6:35 AM 6.8 °F - -4.0 °F 61% 30.32 in 10.0 mi Calm Calm - N/A   Clear
6:55 AM 6.8 °F -2.0 °F -2.2 °F 67% 30.32 in 10.0 mi NNW 4.6 mph - N/A   Clear
7:15 AM 3.2 °F - -4.0 °F 72% 30.32 in 10.0 mi Calm Calm - N/A   Clear
7:35 AM 8.6 °F - -0.4 °F 67% 30.32 in 10.0 mi Calm Calm - N/A   Clear
7:55 AM 15.8 °F 10.2 °F 3.2 °F 58% 30.33 in 10.0 mi NNW 3.5 mph - N/A   Clear
8:15 AM 21.2 °F - 3.2 °F 46% 30.33 in 10.0 mi Calm Calm - N/A   Clear
8:35 AM 23.0 °F - 5.0 °F 46% 30.33 in 10.0 mi Calm Calm - N/A   Clear
8:55 AM 28.4 °F - 3.2 °F 34% 30.33 in 10.0 mi Calm Calm - N/A   Clear
9:15 AM 30.2 °F - 3.2 °F 32% 30.34 in 10.0 mi Calm Calm - N/A   Clear
9:35 AM 32.0 °F - 5.0 °F 32% 30.35 in 10.0 mi Calm Calm - N/A   Clear
9:55 AM 37.4 °F - 5.0 °F 26% 30.34 in 10.0 mi Calm Calm - N/A   Clear
10:15 AM 39.2 °F 37.0 °F 5.0 °F 24% 30.34 in 10.0 mi SE 3.5 mph - N/A   Clear
10:35 AM 41.0 °F 39.0 °F 5.0 °F 23% 30.34 in 10.0 mi SE 3.5 mph - N/A   Clear
10:55 AM 44.6 °F 42.2 °F 6.8 °F 21% 30.33 in 10.0 mi SE 4.6 mph - N/A   Clear
11:15 AM 46.4 °F 43.5 °F 5.0 °F 18% 30.32 in 7.0 mi SSE 5.8 mph - N/A   Clear
11:35 AM 50.0 °F - 3.2 °F 15% 30.31 in 10.0 mi SE 3.5 mph - N/A   Clear
11:55 AM 51.8 °F - 3.2 °F 14% 30.30 in 10.0 mi SE 4.6 mph - N/A   Clear
12:15 PM 53.6 °F - 3.2 °F 13% 30.29 in 10.0 mi SE 4.6 mph - N/A   Clear
12:35 PM 53.6 °F - 3.2 °F 13% 30.28 in 10.0 mi SE 3.5 mph - N/A   Clear
12:55 PM 55.4 °F - 3.2 °F 12% 30.27 in 10.0 mi SSE 6.9 mph - N/A   Clear
1:15 PM 55.4 °F - 1.4 °F 11% 30.26 in 10.0 mi SE 6.9 mph - N/A   Clear
1:35 PM 55.4 °F - 1.4 °F 11% 30.25 in 7.0 mi ESE 5.8 mph - N/A   Clear
1:55 PM 57.2 °F - 1.4 °F 10% 30.24 in 10.0 mi ESE 6.9 mph - N/A   Clear
2:15 PM 57.2 °F - 3.2 °F 11% 30.24 in 10.0 mi SE 5.8 mph - N/A   Clear
2:35 PM 57.2 °F - 3.2 °F 11% 30.24 in 10.0 mi SE 6.9 mph - N/A   Clear
2:55 PM 57.2 °F - 3.2 °F 11% 30.24 in 7.0 mi WNW 9.2 mph - N/A   Clear
3:15 PM 57.2 °F - 3.2 °F 11% 30.25 in 7.0 mi South 6.9 mph - N/A   Clear
3:35 PM 55.4 °F - 3.2 °F 12% 30.25 in 7.0 mi SE 5.8 mph - N/A   Clear
3:55 PM 53.6 °F - 1.4 °F 12% 30.25 in 10.0 mi ESE 6.9 mph - N/A   Clear
4:15 PM 50.0 °F - 1.4 °F 14% 30.25 in 10.0 mi South 3.5 mph - N/A   Clear
4:35 PM 46.4 °F 45.2 °F -0.4 °F 14% 30.25 in 7.0 mi WSW 3.5 mph - N/A   Clear
5:15 PM 39.2 °F - 1.4 °F 21% 30.25 in 10.0 mi Calm Calm - N/A   Clear
5:35 PM 39.2 °F - 3.2 °F 22% 30.26 in 10.0 mi Calm Calm - N/A   Clear
5:55 PM 35.6 °F - 1.4 °F 24% 30.26 in 10.0 mi Calm Calm - N/A   Clear
6:15 PM 35.6 °F - 1.4 °F 24% 30.27 in 10.0 mi Calm Calm - N/A   Clear
6:35 PM 30.2 °F - 1.4 °F 29% 30.28 in 10.0 mi Calm Calm - N/A   Clear
6:55 PM 32.0 °F - 1.4 °F 27% 30.28 in 10.0 mi Calm Calm - N/A   Clear
7:15 PM 28.4 °F - -2.2 °F 27% 30.28 in 10.0 mi Calm Calm - N/A   Clear
7:35 PM 24.8 °F 20.5 °F -2.2 °F 31% 30.29 in 10.0 mi North 3.5 mph - N/A   Clear
7:55 PM 26.6 °F 22.6 °F 1.4 °F 34% 30.29 in 10.0 mi North 3.5 mph - N/A   Clear
8:15 PM 24.8 °F - 1.4 °F 36% 30.29 in 10.0 mi Calm Calm - N/A   Clear
8:35 PM 26.6 °F 22.6 °F 3.2 °F 37% 30.29 in 10.0 mi North 3.5 mph - N/A   Clear
8:55 PM 24.8 °F 20.5 °F 1.4 °F 36% 30.30 in 10.0 mi North 3.5 mph - N/A   Clear
9:15 PM 26.6 °F 22.6 °F 5.0 °F 40% 30.30 in 10.0 mi North 3.5 mph - N/A   Clear
9:35 PM 23.0 °F 18.4 °F 1.4 °F 39% 30.30 in 10.0 mi North 3.5 mph - N/A   Clear
9:55 PM 26.6 °F 20.0 °F 5.0 °F 40% 30.31 in 10.0 mi West 5.8 mph - N/A   Clear
10:15 PM 24.8 °F 19.1 °F 5.0 °F 43% 30.31 in 10.0 mi WNW 4.6 mph - N/A   Clear
10:35 PM 23.0 °F 17.0 °F 5.0 °F 46% 30.31 in 10.0 mi NW 4.6 mph - N/A   Clear
10:55 PM 21.2 °F 14.9 °F 3.2 °F 46% 30.31 in 10.0 mi NW 4.6 mph - N/A   Clear
11:15 PM 21.2 °F - 5.0 °F 50% 30.31 in 10.0 mi Calm Calm - N/A   Clear
11:35 PM 21.2 °F 14.9 °F 5.0 °F 50% 30.31 in 10.0 mi North 4.6 mph - N/A   Clear
11:55 PM 23.0 °F - 5.0 °F 46% 30.31 in 10.0 mi Calm Calm - N/A   Clear